Zurück zum Katalog

ONEWEB-0263

AktivKommunikationPO
NORAD 48981·PAYLOAD·🇬🇧 United Kingdom

Gestartet Jul 1, 2021 von Vostochny Cosmodrome

Loading…

Nächste Überflüge (nächste 24 Stunden)

TLE

AktuellSource: CelesTrak SupGP

Epoche: Sep 14, 2026, 23:58 UTC

1 48981C 21060Q   26257.99880046 -.00004513  00000+0 -11819-1 0  2577
2 48981  87.9139 210.9485 0002142  71.2149  39.2865 13.16596695    16

Verfolge ONEWEB-0263 in Echtzeit mit AllMySat

Download on the App Store